Tracking 28126 objects as of 1-Oct-2023
HD Live streaming from Space Station
objects crossing your sky now

COSMOS 886 DEB

Track COSMOS 886 DEB now!
10-day predictions


NORAD ID: 9956
Int'l Code: 1976-126AW
Perigee: 793.3 km
Apogee: 2,264.2 km
Inclination: 65.8 °
Period: 116.5 minutes
Semi major axis: 7899 km
RCS: 0.0279 m2 (small)
Launch date: December 27, 1976
Source: Commonwealth of Independent States (former USSR) (CIS)
Launch site: TYURATAM MISSILE AND SPACE COMPLEX (TTMTR)

Note: This is SATELLITE DEBRIS
Your satellite tracking list
Your tracking list is empty




NASA's NSSDC Master Catalog

Two Line Element Set (TLE):
1  9956U 76126AW  23273.62177738  .00000093  00000-0  25885-3 0  9992
2  9956  65.7960 343.8310 0930929 322.0899  31.7913 12.36467405108631
Source of the keplerian elements: AFSPC